Preview of NWS' New Version of Forecast
This preview is not operational and should not be used for support decisions.

Regional Weather Roundup (RWR)

Issued by National Weather Service (NWS)

                            
000
ASPQ40 PGUM 240010
RWRPQ 
WEATHER ROUNDUP FOR THE MARIANAS AND MICRONESIA
NATIONAL WEATHER SERVICE TIYAN GU
1000 AM CHST WED APR 24 2019

GUZ001>004-240100-
MARIANA ISLANDS-
  
CITY           SKY/WX    TMP DP  RH WIND       PRES   REMARKS
GUAM AIRPORT   MOSUNNY   86  72  62 E18G25    29.96F HX  92           
ANDERSEN AFB   MOSUNNY   84  77  79 E18       29.97S HX  94           
ROTA AIRPORT   MOSUNNY   82  72  69 E13       29.95S                  
TINIAN AP      MOSUNNY   90  73  58 E17       29.95S HX  98           
SAIPAN AP      MOSUNNY   88  72  58 E17G25    29.96S HX  94           

$$

PMZ161-240100-
REPUBLIC OF PALAU-
  
CITY           SKY/WX    TMP DP  RH WIND       PRES   REMARKS
KOROR AP       CLOUDY    79  77  94 E10G20    29.84S                  
KOROR WSO      NOT AVBL                                               

$$

PMZ171>174-240100-
FEDERATED STATES OF MICRONESIA-
  
CITY           SKY/WX    TMP DP  RH WIND       PRES   REMARKS
YAP AIRPORT    MOSUNNY   88  75  66 E14       29.88S HX  97           
CHUUK AP       CLOUDY    84  77  79 E9        29.85F HX  94           
POHNPEI AP     CLOUDY    84  77  79 E16       29.87S HX  94           
POHNPEI WSO    NOT AVBL                                               
KOSRAE AP      CLOUDY    81  75  83 SE7       29.86F                  

$$

PMZ181-240100-
REPUBLIC OF THE MARSHALL ISLANDS-
  
CITY           SKY/WX    TMP DP  RH WIND       PRES   REMARKS
KWAJALEIN AP   PTSUNNY   86  77  74 E18       29.88F HX  97           
MAJURO AP      NOT AVBL                                               
MAJURO WSO     PTSUNNY   82  79  89 E21       29.83F HX  93           

$$